This is the latest recevied weather packets stored in our database for station/object SQ6XL-13. If no packets are shown the sender has not sent any weather packets the latest 10 day(s).
| Time | Temp. | Humidity | Pressure | Rain* | Wind** | Luminosity | Snow |
|---|---|---|---|---|---|---|---|
| 1777886151 | 21.11° C | 47% | 1014.6 hPa | 0 mm | - | - | - |
| 1777885657 | 21.67° C | 47% | 1014.7 hPa | 0 mm | - | - | - |
| 1777885114 | 21.67° C | 47% | 1014.8 hPa | 0 mm | - | - | - |
| 1777884582 | 21.11° C | 48% | 1014.7 hPa | 0 mm | - | - | - |
| 1777884081 | 21.11° C | 48% | 1014.8 hPa | 0 mm | - | - | - |
| 1777883512 | 20.56° C | 49% | 1014.9 hPa | 0 mm | - | - | - |
| 1777882991 | 20° C | 49% | 1014.8 hPa | 0 mm | - | - | - |
| 1777882469 | 19.44° C | 52% | 1014.9 hPa | 0 mm | - | - | - |
| 1777881957 | 18.89° C | 51% | 1014.8 hPa | 0 mm | - | - | - |
| 1777881377 | 18.89° C | 50% | 1014.7 hPa | 0 mm | - | - | - |
| 1777880831 | 18.89° C | 51% | 1014.8 hPa | 0 mm | - | - | - |
| 1777880331 | 18.89° C | 51% | 1014.9 hPa | 0 mm | - | - | - |
| 1777879817 | 19.44° C | 50% | 1014.8 hPa | 0 mm | - | - | - |
| 1777879277 | 19.44° C | 51% | 1014.8 hPa | 0 mm | - | - | - |
| 1777878787 | 18.33° C | 53% | 1015 hPa | 0 mm | - | - | - |
| 1777878282 | 17.78° C | 53% | 1014.9 hPa | 0 mm | - | - | - |
| 1777877751 | 17.78° C | 53% | 1014.9 hPa | 0 mm | - | - | - |
| 1777877182 | 17.78° C | 53% | 1014.9 hPa | 0 mm | - | - | - |
| 1777876667 | 17.22° C | 54% | 1014.7 hPa | 0 mm | - | - | - |
| 1777876137 | 16.67° C | 54% | 1014.8 hPa | 0 mm | - | - | - |
| 1777875647 | 16.67° C | 56% | 1015 hPa | 0 mm | - | - | - |
| 1777875087 | 16.67° C | 55% | 1014.8 hPa | 0 mm | - | - | - |
| 1777874487 | 16.67° C | 53% | 1014.8 hPa | 0 mm | - | - | - |
| 1777873897 | 17.22° C | 52% | 1014.8 hPa | 0 mm | - | - | - |
| 1777873387 | 17.22° C | 51% | 1014.8 hPa | 0 mm | - | - | - |
* Rain latest hour (hover to see other rain measurements)
** Current wind speed in m/s (hover to see current wind gust speed)